| time (UTC) | temp C | wind direction | speed KPH | gust KPH | rain 1hr cm | rain 24hr cm | rain mn cm | humidity % | barometer mb |
| 20260831005712 | 20 | 21 | 0.0 | 1.6 | 0.00 | 0.00 | 0.00 | 62 | 1029.3 |
| 20260831005158 | 20 | 21 | 0.0 | 3.2 | 0.00 | 0.00 | 0.00 | 63 | 1029.4 |
| 20260831004652 | 19 | 22 | 0.0 | 3.2 | 0.00 | 0.00 | 0.00 | 64 | 1029.4 |
| 20260831004149 | 20 | 21 | 0.0 | 6.4 | 0.00 | 0.00 | 0.00 | 65 | 1029.4 |
| 20260831003633 | 19 | 21 | 0.0 | 6.4 | 0.00 | 0.00 | 0.00 | 63 | 1029.5 |
| 20260831003133 | 19 | 21 | 0.0 | 0.0 | 0.00 | 0.00 | 0.00 | 66 | 1029.5 |
| 20260831002632 | 19 | 21 | 0.0 | 0.0 | 0.00 | 0.00 | 0.00 | 66 | 1029.5 |
| 20260831002120 | 18 | 21 | 0.0 | 0.0 | 0.00 | 0.00 | 0.00 | 66 | 1029.4 |
| 20260831001612 | 19 | 21 | 0.0 | 0.0 | 0.00 | 0.00 | 0.00 | 66 | 1029.5 |
| 20260831001101 | 18 | 21 | 0.0 | 0.0 | 0.00 | 0.00 | 0.00 | 68 | 1029.4 |
| 20260831000556 | 18 | 22 | 0.0 | 0.0 | 0.00 | 0.00 | 0.00 | 68 | 1029.4 |
| 20260831000050 | 18 | 22 | 0.0 | 0.0 | 0.00 | 0.00 | 0.00 | 68 | 1029.3 |
| 20260830235551 | 17 | 22 | 0.0 | 0.0 | 0.00 | 0.00 | 0.00 | 68 | 1029.3 |
| 20260830235044 | 17 | 21 | 0.0 | 0.0 | 0.00 | 0.00 | 0.00 | 72 | 1029.4 |
| 20260830234536 | 17 | 22 | 0.0 | 0.0 | 0.00 | 0.00 | 0.00 | 73 | 1029.3 |
| 20260830234034 | 17 | 22 | 0.0 | 0.0 | 0.00 | 0.00 | 0.00 | 72 | 1029.4 |
| 20260830233522 | 16 | 22 | 0.0 | 0.0 | 0.00 | 0.00 | 0.00 | 73 | 1029.4 |
| 20260830233008 | 16 | 22 | 0.0 | 0.0 | 0.00 | 0.00 | 0.00 | 72 | 1029.4 |
| 20260830232456 | 16 | 22 | 0.0 | 0.0 | 0.00 | 0.00 | 0.00 | 74 | 1029.4 |
| 20260830231954 | 16 | 22 | 0.0 | 0.0 | 0.00 | 0.00 | 0.00 | 75 | 1029.4 |
| 20260830231454 | 16 | 22 | 0.0 | 4.8 | 0.00 | 0.00 | 0.00 | 75 | 1029.4 |
| 20260830230953 | 15 | 22 | 0.0 | 4.8 | 0.00 | 0.00 | 0.00 | 76 | 1029.4 |
| 20260830230450 | 15 | 21 | 0.0 | 0.0 | 0.00 | 0.00 | 0.00 | 75 | 1029.4 |
| 20260830225942 | 15 | 21 | 0.0 | 0.0 | 0.00 | 0.00 | 0.00 | 78 | 1029.4 |
| 20260830225441 | 15 | 21 | 0.0 | 0.0 | 0.00 | 0.00 | 0.00 | 78 | 1029.5 |
| 20260830224928 | 15 | 21 | 0.0 | 0.0 | 0.00 | 0.00 | 0.00 | 76 | 1029.5 |
| 20260830224427 | 15 | 21 | 0.0 | 0.0 | 0.00 | 0.00 | 0.00 | 79 | 1029.5 |
| 20260830223926 | 15 | 21 | 0.0 | 0.0 | 0.00 | 0.00 | 0.00 | 79 | 1029.4 |
| 20260830223720 | 14 | 21 | 0.0 | 0.0 | 0.00 | 0.00 | 0.00 | 79 | 1029.4 |
| 20260830223617 | 14 | 21 | 0.0 | 0.0 | 0.00 | 0.00 | 0.00 | 81 | 1029.4 |
| 20260830222359 | 14 | 21 | 0.0 | 0.0 | 0.00 | 0.00 | 0.00 | 81 | 1029.3 |
| 20260830221844 | 13 | 21 | 0.0 | 0.0 | 0.00 | 0.00 | 0.00 | 82 | 1029.3 |
| 20260830221335 | 13 | 21 | 0.0 | 0.0 | 0.00 | 0.00 | 0.00 | 83 | 1029.4 |
| 20260830220830 | 13 | 21 | 0.0 | 0.0 | 0.00 | 0.00 | 0.00 | 84 | 1029.4 |
| 20260830220315 | 13 | 22 | 0.0 | 0.0 | 0.00 | 0.00 | 0.00 | 84 | 1029.4 |
| 20260830215811 | 13 | 21 | 0.0 | 0.0 | 0.00 | 0.00 | 0.00 | 87 | 1029.2 |
| 20260830215305 | 12 | 21 | 0.0 | 0.0 | 0.00 | 0.00 | 0.00 | 89 | 1029.2 |
| 20260830214806 | 12 | 21 | 0.0 | 0.0 | 0.00 | 0.00 | 0.00 | 91 | 1029.0 |
| 20260830214517 | 12 | 21 | 0.0 | 0.0 | 0.00 | 0.00 | 0.00 | 92 | 1028.9 |
| 20260830213754 | 11 | 21 | 0.0 | 0.0 | 0.00 | 0.00 | 0.00 | 94 | 1028.9 |
| 20260830213509 | 11 | 21 | 0.0 | 0.0 | 0.00 | 0.00 | 0.00 | 94 | 1028.9 |
| 20260830212733 | 11 | 21 | 0.0 | 0.0 | 0.00 | 0.00 | 0.00 | 95 | 1028.8 |
| 20260830212441 | 10 | 21 | 0.0 | 0.0 | 0.00 | 0.00 | 0.00 | 96 | 1028.7 |
| 20260830211925 | 10 | 21 | 0.0 | 0.0 | 0.00 | 0.00 | 0.00 | 96 | 1028.7 |
| 20260830211429 | 9 | 21 | 0.0 | 0.0 | 0.00 | 0.00 | 0.00 | 96 | 1028.7 |
| 20260830210659 | 9 | 21 | 0.0 | 0.0 | 0.00 | 0.00 | 0.00 | 96 | 1028.7 |
| 20260830210154 | 8 | 21 | 0.0 | 0.0 | 0.00 | 0.00 | 0.00 | 96 | 1028.7 |
| 20260830205855 | 8 | 21 | 0.0 | 0.0 | 0.00 | 0.00 | 0.00 | 96 | 1028.5 |
| 20260830205119 | 8 | 21 | 0.0 | 0.0 | 0.00 | 0.00 | 0.00 | 95 | 1028.4 |
| 20260830204838 | 8 | 21 | 0.0 | 0.0 | 0.00 | 0.00 | 0.00 | 95 | 1028.3 |
| 20260830204318 | 8 | 21 | 0.0 | 0.0 | 0.00 | 0.00 | 0.00 | 95 | 1028.1 |
| 20260830203550 | 8 | 21 | 0.0 | 0.0 | 0.00 | 0.00 | 0.00 | 96 | 1028.1 |
| 20260830203043 | 8 | 21 | 0.0 | 0.0 | 0.00 | 0.00 | 0.00 | 95 | 1028.2 |
| 20260830202736 | 8 | 21 | 0.0 | 0.0 | 0.00 | 0.00 | 0.00 | 95 | 1028.0 |
| 20260830202619 | 8 | 21 | 0.0 | 0.0 | 0.00 | 0.00 | 0.00 | 95 | 1028.2 |
| 20260830201521 | 7 | 21 | 0.0 | 0.0 | 0.00 | 0.00 | 0.00 | 95 | 1028.0 |
| 20260830201012 | 7 | 21 | 0.0 | 0.0 | 0.00 | 0.00 | 0.00 | 95 | 1028.0 |
| 20260830200503 | 7 | 21 | 0.0 | 0.0 | 0.00 | 0.00 | 0.00 | 95 | 1028.1 |
| 20260830200000 | 7 | 21 | 0.0 | 0.0 | 0.00 | 0.00 | 0.00 | 95 | 1028.0 |
| 20260830195459 | 7 | 21 | 0.0 | 0.0 | 0.00 | 0.00 | 0.00 | 95 | 1028.0 |
| 20260830195224 | 7 | 21 | 0.0 | 0.0 | 0.00 | 0.00 | 0.00 | 95 | 1027.9 |
| 20260830194459 | 7 | 21 | 0.0 | 0.0 | 0.00 | 0.00 | 0.00 | 95 | 1027.9 |
| 20260830193940 | 8 | 21 | 0.0 | 0.0 | 0.00 | 0.00 | 0.00 | 95 | 1027.9 |
| 20260830193423 | 8 | 21 | 0.0 | 0.0 | 0.00 | 0.00 | 0.00 | 95 | 1027.9 |
| 20260830192907 | 8 | 21 | 0.0 | 0.0 | 0.00 | 0.00 | 0.00 | 95 | 1027.7 |
| 20260830192627 | 8 | 21 | 0.0 | 0.0 | 0.00 | 0.00 | 0.00 | 95 | 1027.7 |
| 20260830191854 | 8 | 21 | 0.0 | 0.0 | 0.00 | 0.00 | 0.00 | 95 | 1027.7 |
| 20260830191345 | 8 | 21 | 0.0 | 0.0 | 0.00 | 0.00 | 0.00 | 95 | 1027.6 |
| 20260830190831 | 8 | 21 | 0.0 | 0.0 | 0.00 | 0.00 | 0.00 | 95 | 1027.6 |
| 20260830190333 | 8 | 21 | 0.0 | 0.0 | 0.00 | 0.00 | 0.00 | 95 | 1027.6 |
| 20260830190006 | 8 | 21 | 0.0 | 0.0 | 0.00 | 0.00 | 0.00 | 95 | 1027.4 |
| 20260830185850 | 8 | 21 | 0.0 | 0.0 | 0.00 | 0.00 | 0.00 | 95 | 1027.4 |
| 20260830184729 | 8 | 21 | 0.0 | 0.0 | 0.00 | 0.00 | 0.00 | 95 | 1027.5 |
| 20260830184221 | 8 | 21 | 0.0 | 0.0 | 0.00 | 0.00 | 0.00 | 95 | 1027.5 |
| 20260830183920 | 8 | 21 | 0.0 | 0.0 | 0.00 | 0.00 | 0.00 | 95 | 1027.5 |
| 20260830183140 | 8 | 21 | 0.0 | 0.0 | 0.00 | 0.00 | 0.00 | 95 | 1027.5 |
| 20260830182637 | 8 | 21 | 0.0 | 0.0 | 0.00 | 0.00 | 0.00 | 95 | 1027.5 |
| 20260830182103 | 8 | 21 | 0.0 | 0.0 | 0.00 | 0.00 | 0.00 | 95 | 1027.5 |
| 20260830181601 | 8 | 21 | 0.0 | 0.0 | 0.00 | 0.00 | 0.00 | 95 | 1027.7 |
| 20260830181059 | 8 | 21 | 0.0 | 0.0 | 0.00 | 0.00 | 0.00 | 95 | 1027.8 |
| 20260830180529 | 9 | 21 | 0.0 | 0.0 | 0.00 | 0.00 | 0.00 | 95 | 1027.8 |
| 20260830180013 | 9 | 21 | 0.0 | 0.0 | 0.00 | 0.00 | 0.00 | 95 | 1027.8 |
| 20260830175506 | 9 | 21 | 0.0 | 0.0 | 0.00 | 0.00 | 0.00 | 95 | 1027.8 |
| 20260830175002 | 9 | 21 | 0.0 | 0.0 | 0.00 | 0.00 | 0.00 | 95 | 1027.7 |
| 20260830174452 | 9 | 21 | 0.0 | 0.0 | 0.00 | 0.00 | 0.00 | 95 | 1027.7 |
| 20260830173952 | 8 | 21 | 0.0 | 0.0 | 0.00 | 0.00 | 0.00 | 95 | 1027.8 |
| 20260830173437 | 9 | 21 | 0.0 | 0.0 | 0.00 | 0.00 | 0.00 | 95 | 1027.8 |
| 20260830172937 | 9 | 21 | 0.0 | 0.0 | 0.00 | 0.00 | 0.00 | 95 | 1027.8 |
| 20260830172436 | 9 | 21 | 0.0 | 0.0 | 0.00 | 0.00 | 0.00 | 95 | 1027.8 |
| 20260830172130 | 9 | 21 | 0.0 | 0.0 | 0.00 | 0.00 | 0.00 | 95 | 1027.8 |
| 20260830171356 | 8 | 21 | 0.0 | 0.0 | 0.00 | 0.00 | 0.00 | 95 | 1027.8 |
| 20260830170844 | 8 | 21 | 0.0 | 0.0 | 0.00 | 0.00 | 0.00 | 94 | 1027.9 |
| 20260830170538 | 9 | 21 | 0.0 | 0.0 | 0.00 | 0.00 | 0.00 | 94 | 1028.0 |
| 20260830165809 | 9 | 21 | 0.0 | 0.0 | 0.00 | 0.00 | 0.00 | 95 | 1028.1 |
| 20260830165305 | 9 | 21 | 0.0 | 0.0 | 0.00 | 0.00 | 0.00 | 94 | 1028.1 |
| 20260830164749 | 9 | 21 | 0.0 | 0.0 | 0.00 | 0.00 | 0.00 | 95 | 1028.1 |
| 20260830164234 | 9 | 21 | 0.0 | 0.0 | 0.00 | 0.00 | 0.00 | 94 | 1028.0 |
| 20260830163926 | 9 | 21 | 0.0 | 0.0 | 0.00 | 0.00 | 0.00 | 95 | 1028.0 |
| 20260830163201 | 9 | 21 | 0.0 | 0.0 | 0.00 | 0.00 | 0.00 | 94 | 1027.9 |
| 20260830162653 | 9 | 21 | 0.0 | 0.0 | 0.00 | 0.00 | 0.00 | 94 | 1027.9 |
| 20260830162149 | 9 | 21 | 0.0 | 0.0 | 0.00 | 0.00 | 0.00 | 95 | 1027.9 |
| 20260830161637 | 9 | 21 | 0.0 | 0.0 | 0.00 | 0.00 | 0.00 | 95 | 1028.0 |
| 20260830161126 | 9 | 21 | 0.0 | 0.0 | 0.00 | 0.00 | 0.00 | 95 | 1028.0 |
| 20260830160852 | 9 | 21 | 0.0 | 0.0 | 0.00 | 0.00 | 0.00 | 95 | 1028.0 |
| 20260830160121 | 9 | 21 | 0.0 | 0.0 | 0.00 | 0.00 | 0.00 | 94 | 1028.0 |
| 20260830155603 | 9 | 21 | 0.0 | 0.0 | 0.00 | 0.00 | 0.00 | 94 | 1028.0 |
| 20260830155307 | 9 | 21 | 0.0 | 0.0 | 0.00 | 0.00 | 0.00 | 94 | 1028.1 |
| 20260830154500 | 9 | 21 | 0.0 | 0.0 | 0.00 | 0.00 | 0.00 | 94 | 1028.0 |
| 20260830153934 | 9 | 21 | 0.0 | 0.0 | 0.00 | 0.00 | 0.00 | 94 | 1028.1 |
| 20260830153425 | 9 | 21 | 0.0 | 0.0 | 0.00 | 0.00 | 0.00 | 94 | 1028.2 |
| 20260830153131 | 9 | 21 | 0.0 | 0.0 | 0.00 | 0.00 | 0.00 | 94 | 1028.2 |
| 20260830152402 | 9 | 21 | 0.0 | 0.0 | 0.00 | 0.00 | 0.00 | 94 | 1028.1 |
| 20260830151902 | 9 | 21 | 0.0 | 0.0 | 0.00 | 0.00 | 0.00 | 93 | 1028.1 |
| 20260830151357 | 9 | 21 | 0.0 | 0.0 | 0.00 | 0.00 | 0.00 | 93 | 1028.1 |
| 20260830151115 | 9 | 21 | 0.0 | 0.0 | 0.00 | 0.00 | 0.00 | 93 | 1028.1 |
| 20260830150344 | 9 | 21 | 0.0 | 0.0 | 0.00 | 0.00 | 0.00 | 93 | 1028.1 |
| 20260830145840 | 9 | 21 | 0.0 | 0.0 | 0.00 | 0.00 | 0.00 | 93 | 1028.2 |
| 20260830145324 | 9 | 21 | 0.0 | 0.0 | 0.00 | 0.00 | 0.00 | 93 | 1028.3 |
| 20260830144808 | 10 | 21 | 0.0 | 0.0 | 0.00 | 0.00 | 0.00 | 93 | 1028.3 |
| 20260830144455 | 9 | 21 | 0.0 | 0.0 | 0.00 | 0.00 | 0.00 | 93 | 1028.4 |
| 20260830143706 | 9 | 21 | 0.0 | 0.0 | 0.00 | 0.00 | 0.00 | 93 | 1028.3 |
| 20260830143418 | 10 | 21 | 0.0 | 0.0 | 0.00 | 0.00 | 0.00 | 93 | 1028.4 |
| 20260830142640 | 10 | 21 | 0.0 | 0.0 | 0.00 | 0.00 | 0.00 | 93 | 1028.4 |
| 20260830142134 | 10 | 21 | 0.0 | 0.0 | 0.00 | 0.00 | 0.00 | 93 | 1028.4 |
| 20260830141605 | 10 | 21 | 0.0 | 0.0 | 0.00 | 0.00 | 0.00 | 93 | 1028.5 |
| 20260830141101 | 10 | 21 | 0.0 | 0.0 | 0.00 | 0.00 | 0.00 | 92 | 1028.5 |
| 20260830140600 | 10 | 21 | 0.0 | 0.0 | 0.00 | 0.00 | 0.00 | 92 | 1028.4 |
| 20260830140320 | 10 | 21 | 0.0 | 0.0 | 0.00 | 0.00 | 0.00 | 92 | 1028.4 |
| 20260830135544 | 10 | 21 | 0.0 | 0.0 | 0.00 | 0.00 | 0.00 | 92 | 1028.4 |
| 20260830135034 | 10 | 21 | 0.0 | 0.0 | 0.00 | 0.00 | 0.00 | 92 | 1028.3 |
| 20260830134518 | 10 | 21 | 0.0 | 0.0 | 0.00 | 0.00 | 0.00 | 92 | 1028.4 |
| 20260830134506 | 10 | 21 | 0.0 | 0.0 | 0.00 | 0.00 | 0.00 | 91 | 1028.5 |
| 20260830133509 | 10 | 21 | 0.0 | 0.0 | 0.00 | 0.00 | 0.00 | 92 | 1028.5 |
| 20260830133004 | 10 | 21 | 0.0 | 0.0 | 0.00 | 0.00 | 0.00 | 91 | 1028.5 |
| 20260830132458 | 10 | 21 | 0.0 | 0.0 | 0.00 | 0.00 | 0.00 | 91 | 1028.5 |
| 20260830132228 | 10 | 21 | 0.0 | 0.0 | 0.00 | 0.00 | 0.00 | 91 | 1028.7 |
| 20260830131451 | 10 | 21 | 0.0 | 0.0 | 0.00 | 0.00 | 0.00 | 91 | 1028.5 |
| 20260830130942 | 10 | 21 | 0.0 | 0.0 | 0.00 | 0.00 | 0.00 | 91 | 1028.5 |
| 20260830130426 | 10 | 21 | 0.0 | 0.0 | 0.00 | 0.00 | 0.00 | 90 | 1028.5 |
| 20260830130333 | 11 | 21 | 0.0 | 0.0 | 0.00 | 0.00 | 0.00 | 90 | 1028.4 |
| 20260830125951 | 10 | 21 | 0.0 | 0.0 | 0.00 | 0.00 | 0.00 | 90 | 1028.5 |
| 20260830124857 | 11 | 21 | 0.0 | 0.0 | 0.00 | 0.00 | 0.00 | 89 | 1028.3 |
| 20260830124614 | 11 | 21 | 0.0 | 0.0 | 0.00 | 0.00 | 0.00 | 89 | 1028.3 |
| 20260830124102 | 11 | 21 | 0.0 | 0.0 | 0.00 | 0.00 | 0.00 | 89 | 1028.2 |
| 20260830123311 | 11 | 21 | 0.0 | 0.0 | 0.00 | 0.00 | 0.00 | 89 | 1028.2 |
| 20260830122808 | 11 | 21 | 0.0 | 0.0 | 0.00 | 0.00 | 0.00 | 89 | 1028.3 |
| 20260830122228 | 11 | 21 | 0.0 | 0.0 | 0.00 | 0.00 | 0.00 | 89 | 1028.2 |
| 20260830121704 | 11 | 21 | 0.0 | 0.0 | 0.00 | 0.00 | 0.00 | 90 | 1028.2 |
| 20260830121206 | 11 | 21 | 0.0 | 0.0 | 0.00 | 0.00 | 0.00 | 90 | 1028.2 |
| 20260830120917 | 11 | 21 | 0.0 | 0.0 | 0.00 | 0.00 | 0.00 | 90 | 1028.3 |
| 20260830120146 | 11 | 21 | 0.0 | 0.0 | 0.00 | 0.00 | 0.00 | 90 | 1028.3 |
| 20260830115854 | 11 | 21 | 0.0 | 0.0 | 0.00 | 0.00 | 0.00 | 90 | 1028.3 |
| 20260830115340 | 11 | 21 | 0.0 | 0.0 | 0.00 | 0.00 | 0.00 | 90 | 1028.4 |
| 20260830114622 | 11 | 21 | 0.0 | 0.0 | 0.00 | 0.00 | 0.00 | 90 | 1028.2 |
| 20260830114113 | 11 | 21 | 0.0 | 0.0 | 0.00 | 0.00 | 0.00 | 90 | 1028.3 |
| 20260830113614 | 11 | 21 | 0.0 | 0.0 | 0.00 | 0.00 | 0.00 | 90 | 1028.2 |
| 20260830113109 | 11 | 21 | 0.0 | 0.0 | 0.00 | 0.00 | 0.00 | 90 | 1028.1 |
| 20260830112609 | 11 | 21 | 0.0 | 0.0 | 0.00 | 0.00 | 0.00 | 89 | 1028.1 |
| 20260830112107 | 11 | 21 | 0.0 | 0.0 | 0.00 | 0.00 | 0.00 | 89 | 1028.1 |
| 20260830111606 | 11 | 21 | 0.0 | 0.0 | 0.00 | 0.00 | 0.00 | 89 | 1028.1 |
| 20260830111038 | 12 | 21 | 0.0 | 0.0 | 0.00 | 0.00 | 0.00 | 88 | 1027.9 |
| 20260830110523 | 12 | 21 | 0.0 | 0.0 | 0.00 | 0.00 | 0.00 | 87 | 1027.9 |
| 20260830105957 | 12 | 21 | 0.0 | 0.0 | 0.00 | 0.00 | 0.00 | 87 | 1028.0 |
| 20260830105438 | 12 | 21 | 0.0 | 0.0 | 0.00 | 0.00 | 0.00 | 86 | 1028.1 |
| 20260830104938 | 12 | 21 | 0.0 | 0.0 | 0.00 | 0.00 | 0.00 | 85 | 1028.1 |
| 20260830104404 | 13 | 21 | 0.0 | 0.0 | 0.00 | 0.00 | 0.00 | 84 | 1028.1 |
| 20260830103906 | 13 | 21 | 0.0 | 0.0 | 0.00 | 0.00 | 0.00 | 83 | 1028.0 |
| 20260830103839 | 13 | 21 | 0.0 | 0.0 | 0.00 | 0.00 | 0.00 | 83 | 1027.9 |
| 20260830103114 | 13 | 21 | 0.0 | 0.0 | 0.00 | 0.00 | 0.00 | 83 | 1027.9 |
| 20260830102346 | 13 | 21 | 0.0 | 0.0 | 0.00 | 0.00 | 0.00 | 84 | 1027.9 |
| 20260830101843 | 13 | 21 | 0.0 | 0.0 | 0.00 | 0.00 | 0.00 | 84 | 1027.9 |
| 20260830101340 | 13 | 21 | 0.0 | 0.0 | 0.00 | 0.00 | 0.00 | 83 | 1027.8 |
| 20260830100831 | 14 | 21 | 0.0 | 0.0 | 0.00 | 0.00 | 0.00 | 81 | 1027.7 |
| 20260830100327 | 14 | 21 | 0.0 | 0.0 | 0.00 | 0.00 | 0.00 | 81 | 1027.8 |
| 20260830095824 | 14 | 21 | 0.0 | 0.0 | 0.00 | 0.00 | 0.00 | 83 | 1027.6 |
| 20260830095755 | 14 | 21 | 0.0 | 0.0 | 0.00 | 0.00 | 0.00 | 84 | 1027.6 |
| 20260830094758 | 13 | 21 | 0.0 | 0.0 | 0.00 | 0.00 | 0.00 | 85 | 1027.5 |
| 20260830094257 | 13 | 21 | 0.0 | 0.0 | 0.00 | 0.00 | 0.00 | 86 | 1027.5 |
| 20260830093716 | 13 | 21 | 0.0 | 0.0 | 0.00 | 0.00 | 0.00 | 84 | 1027.5 |
| 20260830093148 | 13 | 21 | 0.0 | 0.0 | 0.00 | 0.00 | 0.00 | 83 | 1027.5 |
| 20260830092647 | 14 | 21 | 0.0 | 0.0 | 0.00 | 0.00 | 0.00 | 83 | 1027.5 |
| 20260830092114 | 14 | 21 | 0.0 | 0.0 | 0.00 | 0.00 | 0.00 | 83 | 1027.5 |
| 20260830091607 | 14 | 21 | 0.0 | 0.0 | 0.00 | 0.00 | 0.00 | 83 | 1027.5 |
| 20260830091103 | 14 | 21 | 0.0 | 0.0 | 0.00 | 0.00 | 0.00 | 82 | 1027.5 |
| 20260830090553 | 14 | 21 | 0.0 | 0.0 | 0.00 | 0.00 | 0.00 | 81 | 1027.4 |
| 20260830090043 | 15 | 21 | 0.0 | 0.0 | 0.00 | 0.00 | 0.00 | 81 | 1027.5 |
| 20260830085541 | 15 | 21 | 0.0 | 0.0 | 0.00 | 0.00 | 0.00 | 81 | 1027.5 |
| 20260830085033 | 15 | 21 | 0.0 | 0.0 | 0.00 | 0.00 | 0.00 | 80 | 1027.5 |
| 20260830084524 | 15 | 21 | 0.0 | 0.0 | 0.00 | 0.00 | 0.00 | 80 | 1027.5 |
| 20260830084228 | 15 | 21 | 0.0 | 0.0 | 0.00 | 0.00 | 0.00 | 79 | 1027.4 |
| 20260830083457 | 15 | 21 | 0.0 | 0.0 | 0.00 | 0.00 | 0.00 | 78 | 1027.3 |
| 20260830082951 | 15 | 21 | 0.0 | 0.0 | 0.00 | 0.00 | 0.00 | 78 | 1027.3 |
| 20260830082447 | 15 | 21 | 0.0 | 0.0 | 0.00 | 0.00 | 0.00 | 76 | 1027.2 |
| 20260830081941 | 16 | 21 | 0.0 | 0.0 | 0.00 | 0.00 | 0.00 | 76 | 1027.1 |
| 20260830081425 | 16 | 21 | 0.0 | 0.0 | 0.00 | 0.00 | 0.00 | 75 | 1027.0 |
| 20260830080909 | 16 | 21 | 0.0 | 0.0 | 0.00 | 0.00 | 0.00 | 74 | 1027.0 |
| 20260830080401 | 16 | 21 | 0.0 | 0.0 | 0.00 | 0.00 | 0.00 | 73 | 1027.0 |
| 20260830075855 | 17 | 21 | 0.0 | 0.0 | 0.00 | 0.00 | 0.00 | 71 | 1026.9 |
| 20260830075622 | 17 | 21 | 0.0 | 0.0 | 0.00 | 0.00 | 0.00 | 70 | 1026.8 |
| 20260830074853 | 17 | 21 | 0.0 | 0.0 | 0.00 | 0.00 | 0.00 | 69 | 1026.7 |
| 20260830074347 | 17 | 21 | 0.0 | 0.0 | 0.00 | 0.00 | 0.00 | 68 | 1026.6 |
| 20260830073823 | 18 | 21 | 0.0 | 1.6 | 0.00 | 0.00 | 0.00 | 67 | 1026.6 |
| 20260830073325 | 18 | 21 | 0.0 | 4.8 | 0.00 | 0.00 | 0.00 | 66 | 1026.6 |
| 20260830072809 | 18 | 21 | 0.0 | 4.8 | 0.00 | 0.00 | 0.00 | 65 | 1026.7 |
| 20260830072308 | 18 | 21 | 1.6 | 6.4 | 0.00 | 0.00 | 0.00 | 64 | 1026.7 |
| 20260830072000 | 19 | 21 | 1.6 | 6.4 | 0.00 | 0.00 | 0.00 | 64 | 1026.7 |
| 20260830071233 | 19 | 21 | 1.6 | 8.0 | 0.00 | 0.00 | 0.00 | 63 | 1026.6 |
| 20260830070720 | 19 | 20 | 1.6 | 8.0 | 0.00 | 0.00 | 0.00 | 62 | 1026.6 |
| 20260830070210 | 19 | 19 | 1.6 | 6.4 | 0.00 | 0.00 | 0.00 | 61 | 1026.6 |
| 20260830065708 | 20 | 82 | 0.0 | 6.4 | 0.00 | 0.00 | 0.00 | 60 | 1026.4 |
| 20260830065203 | 20 | 82 | 0.0 | 9.7 | 0.00 | 0.00 | 0.00 | 59 | 1026.6 |
| 20260830064655 | 20 | 82 | 1.6 | 9.7 | 0.00 | 0.00 | 0.00 | 58 | 1026.6 |
| 20260830064145 | 20 | 53 | 1.6 | 8.0 | 0.00 | 0.00 | 0.00 | 56 | 1026.6 |
| 20260830063638 | 20 | 53 | 1.6 | 8.0 | 0.00 | 0.00 | 0.00 | 56 | 1026.6 |
| 20260830063131 | 20 | 54 | 1.6 | 8.0 | 0.00 | 0.00 | 0.00 | 53 | 1026.6 |
| 20260830062620 | 20 | 63 | 1.6 | 8.0 | 0.00 | 0.00 | 0.00 | 52 | 1026.7 |
| 20260830062111 | 20 | 69 | 1.6 | 8.0 | 0.00 | 0.00 | 0.00 | 51 | 1026.7 |
| 20260830061825 | 20 | 69 | 0.0 | 8.0 | 0.00 | 0.00 | 0.00 | 50 | 1026.7 |
| 20260830061056 | 20 | 69 | 1.6 | 8.0 | 0.00 | 0.00 | 0.00 | 51 | 1026.7 |
| 20260830060549 | 20 | 65 | 1.6 | 8.0 | 0.00 | 0.00 | 0.00 | 49 | 1026.6 |
| 20260830060042 | 20 | 65 | 1.6 | 8.0 | 0.00 | 0.00 | 0.00 | 52 | 1026.7 |
| 20260830055541 | 21 | 69 | 1.6 | 8.0 | 0.00 | 0.00 | 0.00 | 51 | 1026.7 |
| 20260830055300 | 21 | 69 | 0.0 | 6.4 | 0.00 | 0.00 | 0.00 | 51 | 1026.7 |
| 20260830054519 | 21 | 69 | 0.0 | 3.2 | 0.00 | 0.00 | 0.00 | 50 | 1026.8 |
| 20260830054010 | 21 | 69 | 0.0 | 6.4 | 0.00 | 0.00 | 0.00 | 48 | 1026.8 |
| 20260830053504 | 21 | 69 | 1.6 | 8.0 | 0.00 | 0.00 | 0.00 | 48 | 1026.8 |
| 20260830052951 | 21 | 69 | 1.6 | 8.0 | 0.00 | 0.00 | 0.00 | 46 | 1026.8 |
| 20260830052446 | 21 | 63 | 1.6 | 8.0 | 0.00 | 0.00 | 0.00 | 42 | 1026.9 |
| 20260830051935 | 21 | 63 | 0.0 | 6.4 | 0.00 | 0.00 | 0.00 | 39 | 1026.8 |
| 20260830051643 | 21 | 63 | 1.6 | 8.0 | 0.00 | 0.00 | 0.00 | 40 | 1026.9 |
| 20260830050913 | 21 | 63 | 1.6 | 9.7 | 0.00 | 0.00 | 0.00 | 38 | 1026.9 |
| 20260830050357 | 21 | 143 | 1.6 | 8.0 | 0.00 | 0.00 | 0.00 | 37 | 1026.9 |
| 20260830045846 | 21 | 104 | 1.6 | 8.0 | 0.00 | 0.00 | 0.00 | 39 | 1026.9 |
| 20260830045329 | 21 | 102 | 1.6 | 9.7 | 0.00 | 0.00 | 0.00 | 39 | 1026.9 |
| 20260830044817 | 21 | 102 | 1.6 | 9.7 | 0.00 | 0.00 | 0.00 | 39 | 1026.9 |
| 20260830044531 | 22 | 80 | 1.6 | 6.4 | 0.00 | 0.00 | 0.00 | 39 | 1027.0 |
| 20260830043805 | 22 | 102 | 1.6 | 6.4 | 0.00 | 0.00 | 0.00 | 40 | 1027.0 |
| 20260830043305 | 22 | 102 | 1.6 | 8.0 | 0.00 | 0.00 | 0.00 | 42 | 1026.9 |
| 20260830042800 | 21 | 102 | 1.6 | 8.0 | 0.00 | 0.00 | 0.00 | 42 | 1026.9 |
| 20260830042254 | 21 | 103 | 1.6 | 8.0 | 0.00 | 0.00 | 0.00 | 42 | 1026.9 |
| 20260830041752 | 22 | 103 | 1.6 | 9.7 | 0.00 | 0.00 | 0.00 | 43 | 1026.9 |
| 20260830041245 | 22 | 102 | 1.6 | 9.7 | 0.00 | 0.00 | 0.00 | 43 | 1026.9 |
| 20260830040742 | 22 | 68 | 1.6 | 11.3 | 0.00 | 0.00 | 0.00 | 44 | 1027.0 |
| 20260830040735 | 21 | 34 | 1.6 | 11.3 | 0.00 | 0.00 | 0.00 | 43 | 1027.0 |
| 20260830035733 | 21 | 49 | 0.0 | 3.2 | 0.00 | 0.00 | 0.00 | 45 | 1027.0 |
| 20260830035219 | 21 | 49 | 1.6 | 9.7 | 0.00 | 0.00 | 0.00 | 45 | 1027.2 |
| 20260830034713 | 22 | 49 | 1.6 | 9.7 | 0.00 | 0.00 | 0.00 | 45 | 1027.2 |
| 20260830034206 | 21 | 46 | 1.6 | 8.0 | 0.00 | 0.00 | 0.00 | 45 | 1027.2 |
| 20260830033656 | 21 | 72 | 1.6 | 8.0 | 0.00 | 0.00 | 0.00 | 46 | 1027.2 |
| 20260830033151 | 22 | 73 | 1.6 | 8.0 | 0.00 | 0.00 | 0.00 | 45 | 1027.2 |
| 20260830032902 | 21 | 72 | 1.6 | 6.4 | 0.00 | 0.00 | 0.00 | 48 | 1027.2 |
| 20260830032131 | 21 | 72 | 1.6 | 8.0 | 0.00 | 0.00 | 0.00 | 49 | 1027.3 |
| 20260830031620 | 21 | 72 | 0.0 | 8.0 | 0.00 | 0.00 | 0.00 | 46 | 1027.3 |
| 20260830031113 | 21 | 72 | 0.0 | 3.2 | 0.00 | 0.00 | 0.00 | 50 | 1027.4 |
| 20260830030608 | 21 | 72 | 0.0 | 1.6 | 0.00 | 0.00 | 0.00 | 49 | 1027.5 |
| 20260830030325 | 21 | 72 | 1.6 | 8.0 | 0.00 | 0.00 | 0.00 | 49 | 1027.6 |
| 20260830025548 | 21 | 72 | 1.6 | 8.0 | 0.00 | 0.00 | 0.00 | 47 | 1027.7 |
| 20260830025039 | 21 | 71 | 1.6 | 8.0 | 0.00 | 0.00 | 0.00 | 46 | 1027.6 |
| 20260830024533 | 21 | 71 | 1.6 | 6.4 | 0.00 | 0.00 | 0.00 | 49 | 1027.7 |
| 20260830024032 | 21 | 71 | 1.6 | 6.4 | 0.00 | 0.00 | 0.00 | 49 | 1027.7 |
| 20260830023512 | 21 | 49 | 0.0 | 3.2 | 0.00 | 0.00 | 0.00 | 49 | 1027.8 |
| 20260830023444 | 21 | 49 | 0.0 | 4.8 | 0.00 | 0.00 | 0.00 | 48 | 1027.9 |
| 20260830022453 | 21 | 49 | 0.0 | 4.8 | 0.00 | 0.00 | 0.00 | 50 | 1027.8 |
| 20260830021942 | 20 | 49 | 0.0 | 8.0 | 0.00 | 0.00 | 0.00 | 51 | 1027.9 |
| 20260830021436 | 21 | 49 | 1.6 | 11.3 | 0.00 | 0.00 | 0.00 | 51 | 1028.1 |
| 20260830021158 | 21 | 49 | 1.6 | 11.3 | 0.00 | 0.00 | 0.00 | 53 | 1028.1 |
| 20260830020420 | 20 | 80 | 1.6 | 9.7 | 0.00 | 0.00 | 0.00 | 53 | 1028.1 |
| 20260830015912 | 21 | 80 | 1.6 | 9.7 | 0.00 | 0.00 | 0.00 | 51 | 1028.2 |
| 20260830015405 | 21 | 27 | 0.0 | 9.7 | 0.00 | 0.00 | 0.00 | 50 | 1028.2 |
| 20260830014856 | 20 | 19 | 1.6 | 9.7 | 0.00 | 0.00 | 0.00 | 57 | 1028.4 |
| 20260830014348 | 20 | 19 | 1.6 | 9.7 | 0.00 | 0.00 | 0.00 | 53 | 1028.4 |
| 20260830013842 | 20 | 0 | 0.0 | 3.2 | 0.00 | 0.00 | 0.00 | 57 | 1028.5 |
| 20260830013340 | 20 | 355 | 0.0 | 3.2 | 0.00 | 0.00 | 0.00 | 58 | 1028.4 |
| 20260830013103 | 20 | 355 | 0.0 | 3.2 | 0.00 | 0.00 | 0.00 | 58 | 1028.5 |
| 20260830012326 | 20 | 21 | 0.0 | 3.2 | 0.00 | 0.00 | 0.00 | 60 | 1028.6 |
| 20260830011818 | 20 | 21 | 0.0 | 3.2 | 0.00 | 0.00 | 0.00 | 62 | 1028.6 |
| 20260830011300 | 19 | 21 | 0.0 | 3.2 | 0.00 | 0.00 | 0.00 | 65 | 1028.6 |
| 20260830010754 | 18 | 21 | 0.0 | 3.2 | 0.00 | 0.00 | 0.00 | 65 | 1028.6 |